Location: Berlin
(38.3226°N, 75.2177°W)
Time: 22:32:29
(UTC+00:00)

Cosmos 883 Rocket - Pass Details

Date: 26 October 2020
Orbit: 951 x 995 km, 83.0° (Epoch: 05 December)

Event Time Altitude Azimuth Distance (km) Brightness Sun altitude
Rises 00:09:21 0° 180° (S) 3,647 7.5 -24.2°
Reaches altitude 10° 00:11:51 10° 178° (S) 2,698 6.8 -24.7°
Maximum altitude 00:18:00 76° 95° (E) 992 4.3 -25.9°
Drops below altitude 10° 00:24:08 10° 10° (N) 2,690 6.7 -27.1°
Sets 00:26:38 0° 9° (N) 3,636 7.5 -27.6°
